Weather in St.Lucia

South Africa     28°23′01″S   32°24′54″E
temp.,
°C
wind,
m/s
gust,
m/s
humid.,
%
clouds,
%
prec.,
mm/h
press.,
hPa
HPBL,
m
21 april, wed
wed2123:00+22sw348126 1.6 1024487
02:00+22sw348419 2.9 1022385
05:00+20w22844 0.0 1021186
08:00+21nw23815 0.0 1022197
11:00+23nne44765 0.0 1021477
14:00+24ne557412 0.0 1019448
17:00+24ne77745 0.0 1018554
20:00+25nne88723 0.0 1020718
22 april, thu
thu2223:00+24n677672 0.3 1020915
02:00+23n577971 0.9 1020385
05:00+23n9127811 0.0 1019624
08:00+23n8118063 0.0 1020601
11:00+25n1011670 0.0 1018804
14:00+25ne1010702 0.0 1016496
17:00+25ne897323 0.0 1016730
20:00+25nne677319 0.1 1018890
23 april, fri
fri2323:00+23sw91081100 6.0 1019586
02:00+20wsw5582100 6.6 1017246
05:00+21wsw5679100 0.3 1017502
08:00+20sw698690 0.6 1018503
11:00+23sw9116698 0.1 10171230
14:00+23ssw10116683 0.1 10151049
17:00+23sw6864100 0.0 1014686
20:00+22wsw81270100 0.0 1015833
24 april, sat
sat2423:00+21wsw71270100 0.0 1015649
02:00+20w5774100 0.0 1014321
05:00+20w3469100 0.0 1014291
08:00+20nw2269100 0.0 1016209
11:00+22n22648 0.0 1015441
14:00+23ene43641 0.0 1013486
17:00+23ese456136 0.0 1014452
20:00+23ese23590 0.0 1015496
25 april, sun
sun2523:00+21w33710 0.0 1016206
02:00+20wsw22730 0.0 1015130
05:00+19wnw22791 0.0 1014170
08:00+21n33780 0.0 1016260
11:00+23nne55730 0.0 1015539
14:00+23ne65720 0.0 1013405
17:00+24ene66720 0.0 1013396
20:00+24ne66730 0.0 1014582